AAL2068 KCLT-KLGA

Flight info

Callsign AAL2068
Flight time N/A
Altitude 37000
Route BARMY5 RDU NOWAE Q87 HURTS PROUD2
Aircraft B738/M-SDE2E3FGHIRWXY/LB1

Departure

Time N/A
Airport Charlotte Douglas International Airport (KCLT)

Arrival

Time 2026-05-08 02:21
Airport LaGuardia Airport (KLGA)
Time Latitude Longitude Altitude Speed Heading
2026-05-08 02:05 39.99061 -74.79939 11948 ft 424 kts 45°
2026-05-08 02:05 40.01024 -74.77125 11479 ft 415 kts 44°
2026-05-08 02:05 40.02950 -74.74380 11120 ft 403 kts 44°
2026-05-08 02:06 40.04817 -74.71715 10763 ft 392 kts 44°
2026-05-08 02:06 40.06627 -74.69119 10450 ft 381 kts 44°
2026-05-08 02:06 40.08365 -74.66620 10150 ft 371 kts 44°
2026-05-08 02:06 40.10067 -74.64170 10017 ft 356 kts 44°
2026-05-08 02:07 40.11696 -74.61821 9984 ft 340 kts 44°
2026-05-08 02:07 40.12751 -74.60300 9977 ft 329 kts 44°
2026-05-08 02:07 40.14255 -74.58133 9972 ft 315 kts 44°
2026-05-08 02:07 40.16144 -74.55410 9968 ft 296 kts 44°
2026-05-08 02:08 40.17066 -74.54081 9967 ft 287 kts 43°
2026-05-08 02:08 40.18377 -74.52187 9971 ft 275 kts 43°
2026-05-08 02:08 40.19654 -74.50347 9778 ft 282 kts 43°
2026-05-08 02:08 40.21052 -74.48505 9502 ft 288 kts 38°
2026-05-08 02:09 40.22582 -74.46764 9141 ft 294 kts 36°
2026-05-08 02:09 40.24148 -74.45039 8771 ft 294 kts 36°
2026-05-08 02:09 40.25714 -74.43316 8417 ft 294 kts 37°
2026-05-08 02:09 40.27273 -74.41587 8060 ft 294 kts 37°
2026-05-08 02:10 40.28813 -74.39866 7694 ft 289 kts 38°
2026-05-08 02:10 40.30323 -74.38169 7390 ft 282 kts 38°
2026-05-08 02:10 40.31793 -74.36509 7177 ft 276 kts 38°
2026-05-08 02:10 40.33232 -74.34881 7015 ft 272 kts 38°
2026-05-08 02:11 40.34660 -74.33264 6851 ft 271 kts 38°
2026-05-08 02:11 40.36084 -74.31648 6692 ft 270 kts 39°
2026-05-08 02:11 40.37504 -74.30035 6535 ft 270 kts 39°
2026-05-08 02:11 40.38923 -74.28422 6377 ft 270 kts 39°
2026-05-08 02:12 40.40338 -74.26813 6213 ft 270 kts 39°
2026-05-08 02:12 40.41757 -74.25200 6041 ft 270 kts 39°
2026-05-08 02:12 40.43174 -74.23585 5863 ft 270 kts 39°
2026-05-08 02:12 40.44591 -74.21968 5681 ft 270 kts 39°
2026-05-08 02:13 40.46014 -74.20343 5490 ft 271 kts 39°
2026-05-08 02:13 40.47435 -74.18718 5305 ft 271 kts 39°
2026-05-08 02:13 40.48858 -74.17090 5112 ft 271 kts 40°
2026-05-08 02:13 40.50275 -74.15469 4929 ft 268 kts 40°
2026-05-08 02:14 40.51661 -74.13883 4719 ft 263 kts 40°
2026-05-08 02:14 40.53024 -74.12322 4536 ft 256 kts 40°
2026-05-08 02:14 40.54336 -74.10819 4364 ft 245 kts 40°
2026-05-08 02:14 40.55596 -74.09373 4153 ft 235 kts 40°
2026-05-08 02:15 40.56803 -74.07988 3942 ft 226 kts 40°
2026-05-08 02:15 40.57971 -74.06648 3778 ft 220 kts 40°
2026-05-08 02:15 40.59105 -74.05347 3636 ft 218 kts 40°
2026-05-08 02:15 40.60265 -74.04015 3504 ft 218 kts 40°
2026-05-08 02:16 40.61396 -74.02717 3367 ft 218 kts 40°
2026-05-08 02:16 40.62534 -74.01409 3222 ft 213 kts 40°
2026-05-08 02:16 40.63624 -74.00155 3068 ft 203 kts 40°
2026-05-08 02:16 40.64656 -73.98966 3025 ft 194 kts 40°
2026-05-08 02:17 40.65656 -73.97816 3020 ft 188 kts 40°
2026-05-08 02:17 40.66663 -73.96741 2860 ft 188 kts 35°
2026-05-08 02:17 40.67732 -73.95774 2644 ft 185 kts 32°
2026-05-08 02:17 40.68784 -73.94833 2397 ft 182 kts 33°
2026-05-08 02:18 40.69821 -73.93890 2102 ft 181 kts 38°
2026-05-08 02:18 40.70662 -73.92719 1995 ft 169 kts 52°
2026-05-08 02:18 40.71308 -73.91440 1783 ft 169 kts 56°
2026-05-08 02:18 40.71934 -73.90149 1747 ft 169 kts 61°
2026-05-08 02:19 40.72266 -73.88688 1767 ft 164 kts 82°
2026-05-08 02:19 40.72393 -73.87248 1673 ft 154 kts 78°
2026-05-08 02:19 40.72615 -73.85864 1359 ft 152 kts 75°
2026-05-08 02:19 40.72907 -73.84572 1130 ft 143 kts 61°
2026-05-08 02:20 40.73612 -73.83701 1009 ft 141 kts 27°
2026-05-08 02:20 40.74543 -73.83242 856 ft 145 kts
2026-05-08 02:20 40.75554 -73.83467 660 ft 153 kts 341°
2026-05-08 02:20 40.76478 -73.84178 392 ft 156 kts 313°
2026-05-08 02:21 40.77033 -73.85374 150 ft 152 kts 306°
2026-05-08 02:21 40.77583 -73.86510 15 ft 137 kts 304°
2026-05-08 02:21 40.77948 -73.87264 14 ft 30 kts 301°
2026-05-08 02:21 40.77968 -73.87380 13 ft 11 kts 245°
2026-05-08 02:22 40.77910 -73.87440 16 ft 11 kts 209°
2026-05-08 02:22 40.77848 -73.87490 15 ft 10 kts 212°
2026-05-08 02:22 40.77503 -73.87319 19 ft 0 kts 42°